User: anonymous   Login
Location: Unspecified
(0.0000°N, 0.0000°E)
Time: 01:16:38
(UTC+02:00)
Language:

Cosmos 1782 Rocket - Orbit

View from above orbital plane
View from above orbital plane
View from above satellite
View from above satellite

Ground track
Ground track

The orbit data is extracted from the following two-line orbital elements,

1 16987U 86074B   15186.16448502  .00000235  00000-0  26011-4 0  9991
2 16987 082.5168 258.0919 0019902 089.5864 330.1500 14.82768451552806
Epoch (UTC): 05 July 2015 03:56:51
Eccentricity: 0.0019902
inclination: 82.5168°
perigee height: 606 km
apogee height: 634 km
right ascension of ascending node: 258.0919°
argument of perigee: 89.5864°
revolutions per day: 14.82768451
mean anomaly at epoch: 330.1500°
orbit number at epoch: 55280

The dashed part of the orbit path shows where the satellite is in the earth's shadow,  

DLR